Location: D�rnast
(49.6426°N, 11.9755°E)
Time: 07:57:52
(UTC+00:00)

N. Korean satellite - Pass Details

Date: 05 December 2021
Orbit: 446 x 491 km, 97.3° (Epoch: 18 January)

Event Time Altitude Azimuth Distance (km) Brightness Sun altitude
Rises 16:26:45 0° 201° (SSW) 2,527 10.9 -11.4°
Reaches altitude 10° 16:29:15 10° 220° (SW) 1,644 10.3 -11.7°
Maximum altitude 16:31:50 19° 267° (W) 1,185 9.6 -12.1°
Drops below altitude 10° 16:34:25 10° 315° (NW) 1,634 9.6 -12.5°
Sets 16:36:55 0° 334° (NNW) 2,506 10.3 -12.9°
